When you browse on this site, cookies collect data to enhance your experience and personalize the content and advertising you see.
Visit our Privacy Policy to learn more. By continuing to use the site, you agree to this use of cookies and data.
  • In Hungary
  • List of Countries
  • For 7 days
  • Water Temperature
  • Satellite Maps
  • Weather Map
  • News
  • Weather Widgets
  • user-avatar
    Login

    Hourly Weather Lyubech

    Today, 24 July, Wednesday

    Time Temperature Precipitation Wind Pressure Humidity
    00:00 +16°C° 0.1 mm 3 mps 745 mmHg 95%
    01:00 +16°C° 0.1 mm 3 mps 745 mmHg 95%
    02:00 +16°C° 0.1 mm 3 mps 744 mmHg 96%
    03:00 +14°C° 0 mm 3 mps 744 mmHg 96%
    04:00 +14°C° 0 mm 3 mps 744 mmHg 97%
    05:00 +14°C° 0 mm 3 mps 744 mmHg 97%
    06:00 +15°C° 0 mm 4 mps 744 mmHg 94%
    07:00 +17°C° 0 mm 4 mps 744 mmHg 91%
    08:00 +17°C° 0 mm 5 mps 744 mmHg 88%
    09:00 +19°C° 0 mm 5 mps 745 mmHg 84%
    10:00 +20°C° 0 mm 5 mps 745 mmHg 80%
    11:00 +21°C° 0 mm 5 mps 745 mmHg 76%
    12:00 +21°C° 0.1 mm 5 mps 745 mmHg 74%
    13:00 +22°C° 0.1 mm 5 mps 745 mmHg 72%
    14:00 +22°C° 0.1 mm 5 mps 745 mmHg 70%
    15:00 +23°C° 0.2 mm 5 mps 745 mmHg 69%
    16:00 +23°C° 0.2 mm 5 mps 745 mmHg 69%
    17:00 +23°C° 0.2 mm 5 mps 745 mmHg 69%
    18:00 +21°C° 0.1 mm 4 mps 745 mmHg 74%
    19:00 +20°C° 0.1 mm 4 mps 745 mmHg 79%
    20:00 +18°C° 0.1 mm 3 mps 746 mmHg 84%
    21:00 +17°C° 0 mm 3 mps 746 mmHg 86%
    22:00 +17°C° 0 mm 3 mps 746 mmHg 88%
    23:00 +16°C° 0 mm 3 mps 746 mmHg 90%

    Tomorrow, 25 July, Thursday

    Time Temperature Precipitation Wind Pressure Humidity
    00:00 +14°C° 0 mm 3 mps 746 mmHg 91%
    01:00 +14°C° 0 mm 3 mps 746 mmHg 93%
    02:00 +13°C° 0 mm 3 mps 746 mmHg 94%
    03:00 +13°C° 0 mm 3 mps 746 mmHg 94%
    04:00 +13°C° 0 mm 3 mps 747 mmHg 94%
    05:00 +13°C° 0 mm 3 mps 747 mmHg 95%
    06:00 +14°C° 0 mm 3 mps 747 mmHg 88%
    07:00 +17°C° 0 mm 4 mps 747 mmHg 82%
    08:00 +19°C° 0 mm 4 mps 747 mmHg 75%
    09:00 +20°C° 0 mm 4 mps 747 mmHg 70%
    10:00 +21°C° 0 mm 5 mps 747 mmHg 64%
    11:00 +23°C° 0 mm 5 mps 747 mmHg 59%
    12:00 +23°C° 0 mm 5 mps 747 mmHg 58%
    13:00 +23°C° 0 mm 4 mps 747 mmHg 57%
    14:00 +25°C° 0 mm 4 mps 746 mmHg 56%
    15:00 +23°C° 0.4 mm 4 mps 746 mmHg 62%
    16:00 +22°C° 0.4 mm 4 mps 746 mmHg 68%
    17:00 +21°C° 0.4 mm 4 mps 746 mmHg 74%
    18:00 +20°C° 0.2 mm 4 mps 746 mmHg 79%
    19:00 +19°C° 0.2 mm 3 mps 745 mmHg 83%
    20:00 +18°C° 0.2 mm 2 mps 745 mmHg 88%
    21:00 +17°C° 0 mm 2 mps 745 mmHg 89%
    22:00 +18°C° 0 mm 1 mps 745 mmHg 90%
    23:00 +16°C° 0 mm 1 mps 745 mmHg 91%

    Day after tomorrow, 26 July, Friday

    Time Temperature Precipitation Wind Pressure Humidity
    00:00 +16°C° 0 mm 1 mps 745 mmHg 91%
    01:00 +15°C° 0 mm 1 mps 745 mmHg 91%
    02:00 +15°C° 0 mm 1 mps 745 mmHg 92%
    03:00 +15°C° 0 mm 1 mps 745 mmHg 92%
    04:00 +15°C° 0 mm 1 mps 745 mmHg 92%
    05:00 +15°C° 0 mm 1 mps 745 mmHg 93%
    06:00 +16°C° 0 mm 1 mps 745 mmHg 88%
    07:00 +19°C° 0 mm 1 mps 745 mmHg 83%
    08:00 +19°C° 0 mm 2 mps 745 mmHg 78%
    09:00 +21°C° 0 mm 2 mps 745 mmHg 72%
    10:00 +23°C° 0 mm 2 mps 745 mmHg 65%
    11:00 +24°C° 0 mm 2 mps 745 mmHg 59%
    12:00 +25°C° 0.5 mm 2 mps 744 mmHg 61%
    13:00 +25°C° 0.5 mm 3 mps 744 mmHg 63%
    14:00 +25°C° 0.5 mm 3 mps 744 mmHg 66%
    15:00 +24°C° 1 mm 3 mps 744 mmHg 68%
    16:00 +24°C° 1 mm 3 mps 744 mmHg 71%
    17:00 +24°C° 1 mm 2 mps 744 mmHg 74%
    18:00 +21°C° 0.4 mm 3 mps 744 mmHg 80%
    19:00 +20°C° 0.4 mm 3 mps 744 mmHg 86%
    20:00 +19°C° 0.4 mm 3 mps 744 mmHg 92%
    21:00 +18°C° 0.1 mm 3 mps 744 mmHg 94%
    22:00 +18°C° 0.1 mm 3 mps 744 mmHg 95%
    23:00 +17°C° 0.1 mm 3 mps 744 mmHg 96%

    27 July, Saturday

    Time Temperature Precipitation Wind Pressure Humidity
    00:00 +17°C° 0.4 mm 3 mps 744 mmHg 96%
    01:00 +17°C° 0.4 mm 3 mps 743 mmHg 96%
    02:00 +17°C° 0.4 mm 2 mps 743 mmHg 97%
    03:00 +17°C° 0.3 mm 2 mps 743 mmHg 97%
    04:00 +17°C° 0.3 mm 2 mps 743 mmHg 97%
    05:00 +17°C° 0.3 mm 2 mps 743 mmHg 97%
    06:00 +17°C° 2.3 mm 2 mps 743 mmHg 97%
    07:00 +17°C° 2.3 mm 2 mps 742 mmHg 98%
    08:00 +17°C° 2.3 mm 2 mps 742 mmHg 98%
    09:00 +17°C° 1 mm 2 mps 742 mmHg 97%
    10:00 +18°C° 1 mm 2 mps 742 mmHg 96%
    11:00 +18°C° 1 mm 2 mps 742 mmHg 96%
    12:00 +19°C° 0.2 mm 2 mps 742 mmHg 92%
    13:00 +20°C° 0.2 mm 2 mps 742 mmHg 88%
    14:00 +20°C° 0.2 mm 2 mps 742 mmHg 85%
    15:00 +21°C° 0.3 mm 3 mps 742 mmHg 83%
    16:00 +22°C° 0.3 mm 3 mps 742 mmHg 81%
    17:00 +22°C° 0.3 mm 3 mps 742 mmHg 79%
    18:00 +21°C° 0.7 mm 3 mps 742 mmHg 83%
    19:00 +21°C° 0.7 mm 2 mps 742 mmHg 86%
    20:00 +20°C° 0.7 mm 2 mps 742 mmHg 90%
    21:00 +19°C° 0.5 mm 2 mps 742 mmHg 91%
    22:00 +19°C° 0.5 mm 3 mps 742 mmHg 92%
    23:00 +18°C° 0.5 mm 3 mps 742 mmHg 92%

    28 July, Sunday

    Time Temperature Precipitation Wind Pressure Humidity
    00:00 +18°C° 0 mm 3 mps 742 mmHg 92%
    01:00 +17°C° 0 mm 2 mps 742 mmHg 92%
    02:00 +17°C° 0 mm 2 mps 742 mmHg 92%
    03:00 +17°C° 0 mm 2 mps 742 mmHg 93%
    04:00 +16°C° 0 mm 2 mps 742 mmHg 94%
    05:00 +16°C° 0 mm 2 mps 742 mmHg 95%
    06:00 +18°C° 0 mm 3 mps 742 mmHg 92%
    07:00 +20°C° 0 mm 3 mps 742 mmHg 88%
    08:00 +21°C° 0 mm 3 mps 742 mmHg 85%
    09:00 +23°C° 0.4 mm 4 mps 742 mmHg 79%
    10:00 +25°C° 0.4 mm 4 mps 742 mmHg 72%
    11:00 +27°C° 0.4 mm 5 mps 742 mmHg 66%
    12:00 +27°C° 0 mm 5 mps 741 mmHg 63%
    13:00 +28°C° 0 mm 5 mps 741 mmHg 60%
    14:00 +28°C° 0 mm 5 mps 741 mmHg 58%
    15:00 +27°C° 0.4 mm 5 mps 741 mmHg 63%
    16:00 +27°C° 0.4 mm 5 mps 741 mmHg 68%
    17:00 +26°C° 0.4 mm 5 mps 741 mmHg 74%
    18:00 +23°C° 0.1 mm 5 mps 741 mmHg 77%
    19:00 +21°C° 0.1 mm 5 mps 741 mmHg 79%
    20:00 +20°C° 0.1 mm 4 mps 741 mmHg 82%
    21:00 +18°C° 0 mm 4 mps 742 mmHg 83%
    22:00 +17°C° 0 mm 4 mps 742 mmHg 85%
    23:00 +15°C° 0 mm 4 mps 742 mmHg 86%

    29 July, Monday

    Time Temperature Precipitation Wind Pressure Humidity
    00:00 +14°C° 0 mm 4 mps 743 mmHg 87%
    01:00 +13°C° 0 mm 4 mps 743 mmHg 88%
    02:00 +12°C° 0 mm 3 mps 743 mmHg 89%
    03:00 +11°C° 0 mm 3 mps 743 mmHg 90%
    04:00 +11°C° 0 mm 3 mps 744 mmHg 91%
    05:00 +10°C° 0 mm 3 mps 744 mmHg 91%
    06:00 +11°C° 0 mm 3 mps 744 mmHg 84%
    07:00 +13°C° 0 mm 4 mps 744 mmHg 77%
    08:00 +14°C° 0 mm 4 mps 745 mmHg 70%
    09:00 +15°C° 0 mm 4 mps 745 mmHg 66%
    10:00 +17°C° 0 mm 4 mps 745 mmHg 62%
    11:00 +16°C° 0 mm 5 mps 745 mmHg 58%
    12:00 +17°C° 0 mm 5 mps 745 mmHg 57%
    13:00 +17°C° 0 mm 5 mps 745 mmHg 57%
    14:00 +17°C° 0 mm 5 mps 745 mmHg 56%
    15:00 +17°C° 0 mm 5 mps 745 mmHg 57%
    16:00 +16°C° 0 mm 5 mps 745 mmHg 58%
    17:00 +16°C° 0 mm 5 mps 745 mmHg 59%
    18:00 +15°C° 0 mm 4 mps 746 mmHg 64%
    19:00 +13°C° 0 mm 3 mps 746 mmHg 70%
    20:00 +13°C° 0 mm 2 mps 746 mmHg 75%
    21:00 +13°C° 0 mm 2 mps 746 mmHg 73%
    22:00 +14°C° 0 mm 1 mps 746 mmHg 72%
    23:00 +14°C° 0 mm 1 mps 747 mmHg 70%
    Show more